Temperature
16 16 15 15 15 15 15 15 15 15 15 15 15 14 14 14 14 14 14 14 14 14 14 14 14 14 13 13 13 13 13 13 12 12 12 12 11 11 11 11 11 11 11
15 15 15 15 15 15 15 15 15 15 15 15 15 14 14 14 14 14 14 14 14 14 13 13 13 13 13 13 13 13 13 13 12 12 12 12 11 11 11 11 11 11 11
15 15 15 15 15 15 15 15 15 15 15 15 14 14 14 14 14 14 14 14 14 13 13 13 13 13 13 13 13 13 13 12 12 12 12 11 11 11 11 11 11 11 10
15 15 15 15 15 15 15 15 15 14 14 14 14 14 14 14 14 14 14 14 14 13 13 13 13 13 13 13 13 13 12 12 12 12 12 11 11 11 11 11 11 10 10
15 15 15 14 14 14 14 14 14 14 14 14 14 14 14 14 14 14 14 13 13 13 13 13 13 13 13 13 13 12 12 12 12 12 11 11 11 11 11 10 10 10 10
14 14 14 14 14 14 14 14 14 14 14 14 14 14 14 14 14 14 13 13 13 13 13 13 13 13 12 12 12 12 12 12 12 12 11 11 11 11 11 10 10 10 10
14 14 14 14 14 14 14 14 14 14 14 14 14 14 14 14 13 13 13 13 13 13 13 13 13 12 12 12 12 12 12 11 11 11 11 11 11 11 10 10 10 10 9
14 14 14 14 14 13 13 13 13 13 13 14 14 14 13 13 13 13 13 13 13 13 12 12 12 12 12 12 12 12 12 11 11 11 11 11 10 10 10 10 10 9 9
14 13 13 13 13 13 13 13 13 13 13 13 13 13 13 13 13 13 13 13 13 12 12 12 12 12 12 12 12 11 11 11 11 11 10 10 10 10 10 10 9 9 9
13 13 13 13 13 13 13 13 13 13 13 13 13 13 13 13 13 12 12 12 12 12 12 12 12 12 12 11 11 11 11 11 11 10 10 10 10 10 9 9 9 9 9
13 13 13 13 13 13 13 12 12 12 12 12 12 12 12 12 12 12 12 12 12 12 12 12 12 11 11 11 11 11 11 11 10 10 10 10 10 9 9 9 9 8 8
13 13 13 12 12 12 12 12 12 12 12 12 12 12 12 12 12 12 12 12 12 11 11 11 11 11 11 11 11 10 10 10 10 10 10 10 10 9 9 9 8 8 8
12 12 12 12 12 12 12 12 12 12 12 12 12 12 12 12 12 12 11 11 11 11 11 11 11 11 10 10 10 10 10 10 10 10 9 9 9 9 8 8 8 8 7
12 12 12 12 12 12 12 11 11 11 11 11 11 11 11 11 11 11 11 11 11 10 10 10 10 10 10 10 10 10 10 9 9 9 9 9 9 8 8 8 8 7 7
12 12 12 11 11 11 11 11 11 11 11 11 11 11 11 11 11 11 11 11 10 10 10 10 10 10 10 10 9 9 9 9 9 9 9 8 8 8 8 7 7 7 7
11 11 11 11 11 11 11 11 11 11 10 10 10 10 10 10 10 10 10 10 10 10 10 10 10 10 9 9 9 9 9 9 8 8 8 8 8 8 7 7 7 6 6
11 11 11 11 11 11 11 11 11 10 10 10 10 10 10 10 10 10 9 9 9 9 9 9 9 9 9 9 9 8 8 8 8 8 8 7 7 7 7 6 6 6 6
11 11 11 11 10 10 10 10 10 10 10 10 10 9 9 9 9 9 9 9 9 9 9 9 9 8 8 8 8 8 8 8 7 7 7 7 7 6 6 6 6 6 5
11 10 10 10 10 10 10 10 10 9 9 9 9 9 9 9 9 8 8 8 8 8 8 8 8 8 8 8 8 7 7 7 7 7 7 7 6 6 6 6 5 5 5
10 10 10 10 10 10 10 9 9 9 9 9 9 9 9 8 8 8 8 8 8 8 8 8 7 7 7 7 7 7 7 7 7 7 6 6 6 5 5 5 5 5 4
10 10 10 10 10 9 9 9 9 9 8 8 8 8 8 8 8 8 7 7 7 7 7 7 7 7 7 6 6 6 6 6 6 6 6 6 5 5 5 5 4 4 4
10 10 10 9 9 9 9 9 8 8 8 8 8 7 7 7 7 7 7 7 7 7 7 6 6 6 6 6 6 6 6 6 6 5 5 5 5 4 4 4 4 3 3
9 9 9 9 9 9 8 8 8 8 7 7 7 7 7 7 7 6 6 6 6 6 6 6 6 6 6 6 5 5 5 5 5 5 5 4 4 4 4 4 3 3 3
9 9 9 8 8 8 8 8 7 7 7 7 7 7 7 6 6 6 6 6 6 5 5 5 5 5 5 5 5 5 5 5 4 4 4 4 4 4 3 3 3 3 2
8 8 8 8 8 7 7 7 7 7 7 6 6 6 6 6 6 6 6 5 5 5 5 5 5 5 4 4 4 4 4 4 4 4 3 3 3 3 3 3 2 2 2
8 8 7 7 7 7 7 6 6 6 6 6 6 6 6 6 5 5 5 5 5 5 4 4 4 4 4 4 4 4 3 3 3 3 3 3 3 3 2 2 2 1 1
Wind_Speed
3 3 3 3 3 3 3 3 3 2 2 2 2 2 2 2 2 3 2 2 2 1 1 2 1 1 2 1 2 2 2 3 3 0 1 1 2 2 3 4 4 3 3
3 3 3 2 2 2 2 3 3 3 2 3 3 3 3 3 3 3 3 3 3 2 2 2 1 2 2 2 2 2 2 2 3 2 0 1 1 1 2 3 3 2 2
3 3 3 2 2 2 2 2 2 2 2 2 3 3 3 3 3 3 3 3 3 2 2 3 2 3 2 1 2 2 2 2 2 3 2 1 1 1 2 2 2 2 2
3 3 3 2 3 3 2 2 2 2 2 2 3 3 3 3 3 3 3 3 3 2 2 2 3 4 4 3 2 2 3 3 3 3 2 1 1 1 2 1 1 1 1
3 3 2 2 2 2 2 2 2 2 2 2 2 2 2 2 2 3 3 3 3 2 2 2 2 4 4 4 3 4 4 4 4 3 2 2 1 1 1 1 1 0 1
3 3 2 2 2 2 2 2 2 2 2 2 2 2 2 2 4 6 5 3 3 3 2 1 1 2 3 4 5 6 6 5 5 4 2 2 2 2 1 2 2 1 1
3 2 2 2 2 2 2 2 2 2 2 2 2 2 2 2 4 5 7 5 4 3 3 2 2 2 3 2 3 4 4 4 5 5 4 3 3 3 3 3 2 2 2
3 2 2 2 2 2 2 2 1 1 2 2 3 3 2 2 4 5 7 5 3 3 3 3 3 1 2 4 3 3 2 1 3 3 4 4 3 4 4 4 3 2 0
3 3 3 3 3 2 2 2 2 2 2 2 2 3 3 3 4 5 7 4 3 2 2 3 3 3 3 6 5 3 1 1 1 3 3 2 2 4 5 4 3 2 0
5 4 4 4 4 3 3 2 2 2 3 2 2 2 3 3 4 5 6 4 3 2 2 2 4 4 4 6 5 4 3 3 1 1 1 0 1 3 5 4 4 3 1
5 4 3 3 4 4 3 2 2 2 2 2 2 2 2 3 4 5 6 4 4 3 3 3 3 5 5 6 6 5 6 4 2 2 1 1 1 1 1 2 3 4 3
4 4 4 3 3 2 3 2 2 2 2 2 2 2 2 2 4 5 6 6 5 4 4 3 3 5 5 5 4 5 5 4 2 2 2 1 1 2 2 2 3 3 3
5 5 4 3 3 3 3 3 2 2 3 2 2 3 2 2 2 4 5 6 6 4 4 5 5 5 4 3 4 4 4 3 3 2 3 3 2 2 1 1 1 1 0
6 5 4 4 3 3 3 3 3 3 3 3 3 3 3 2 2 2 2 3 4 3 2 2 3 3 2 3 2 2 2 3 4 4 3 2 1 1 1 1 1 1 0
6 5 4 4 4 4 3 3 4 5 5 5 5 5 4 4 6 6 4 3 4 4 3 2 1 1 1 1 1 1 2 2 3 2 3 2 2 2 1 1 1 1 2
5 5 5 4 4 4 3 2 4 4 5 6 6 6 5 6 5 6 6 6 6 7 5 3 3 3 3 3 3 2 2 3 3 3 3 3 3 3 2 1 2 2 3
6 6 5 4 4 4 4 4 3 2 3 5 5 6 5 5 5 5 5 5 5 7 4 3 4 4 4 4 4 3 3 3 3 3 3 3 3 3 2 2 2 2 3
6 6 6 5 5 5 5 5 4 4 3 2 3 4 4 4 4 4 4 5 3 3 3 3 4 4 4 4 4 4 3 3 3 3 3 3 3 3 3 3 3 3 3
5 5 5 5 5 5 4 4 4 4 4 3 1 2 3 3 3 4 6 4 4 4 4 3 3 3 3 3 3 4 4 4 4 4 4 4 4 4 4 4 4 5 4
5 6 5 4 4 4 4 4 4 4 4 3 3 3 2 2 2 2 3 3 3 4 4 4 4 4 4 4 3 3 3 4 4 4 4 4 4 4 5 5 4 4 4
4 5 6 4 4 4 4 4 4 4 4 4 4 3 5 4 4 4 4 4 4 4 4 4 3 3 3 3 3 4 4 3 3 3 4 4 4 4 4 4 4 4 4
4 4 4 5 4 4 4 4 4 4 4 4 3 2 5 3 3 3 3 3 3 3 3 3 3 4 4 4 4 4 4 3 3 3 3 4 4 4 4 4 4 3 4
4 4 4 4 4 4 4 3 4 4 4 4 3 3 3 3 3 3 3 3 3 2 2 3 3 3 4 5 5 4 4 4 4 4 4 4 3 4 4 4 5 4 4
4 5 5 4 4 4 4 4 3 3 3 3 3 3 3 3 3 4 3 3 3 2 3 3 4 4 5 4 4 5 5 6 5 5 6 5 4 4 4 4 5 5 5
4 4 5 4 4 4 4 4 4 4 3 3 3 3 3 3 3 3 3 3 3 2 2 3 3 4 4 4 4 4 6 7 6 5 5 5 4 4 4 4 4 4 5
4 4 4 4 4 4 4 4 4 4 4 4 4 4 4 4 3 3 3 3 3 3 3 3 4 4 5 5 5 6 6 7 7 7 5 5 4 4 4 4 5 5 5
Wind_Direction
170 172 166 181 184 171 177 191 190 184 168 165 167 159 152 152 154 153 161 159 154 159 149 139 138 119 116 111 115 121 126 133 152 234 40 41 65 73 72 80 81 76 72
172 159 163 159 150 161 188 201 186 186 181 174 161 159 165 164 165 166 171 166 168 175 179 151 160 129 117 112 118 121 129 139 147 159 103 44 61 92 88 82 78 86 76
159 153 149 151 157 180 196 193 178 174 162 155 155 168 180 177 173 173 168 163 166 178 176 166 165 137 131 120 124 126 123 118 120 141 150 102 71 93 84 69 67 52 54
143 146 158 180 188 195 187 169 168 163 160 171 170 175 178 175 173 167 160 162 157 154 156 153 157 163 168 161 144 140 129 116 113 119 120 97 88 100 106 112 68 41 28
137 141 174 183 173 162 161 166 159 160 170 166 154 151 151 157 169 165 160 154 148 140 139 150 159 164 165 160 150 147 139 132 128 125 127 112 112 133 182 181 164 58 7
155 165 167 147 133 136 155 160 148 148 155 144 154 157 155 168 152 154 148 143 142 148 152 134 132 132 147 148 143 139 141 146 154 147 148 162 195 198 164 154 149 98 321
159 156 146 150 151 157 151 129 146 168 157 157 172 166 173 178 157 152 149 142 141 153 160 152 138 127 127 124 124 126 137 146 154 155 158 185 193 199 168 161 168 165 213
158 155 151 147 162 158 144 152 169 164 169 181 182 180 180 192 164 159 153 142 142 159 166 163 163 178 150 143 130 112 114 150 178 168 181 193 190 180 174 175 175 154 139
170 177 180 172 165 153 163 187 183 171 179 188 182 179 186 209 177 165 152 149 157 187 194 174 177 194 183 158 143 145 154 272 207 192 193 187 173 161 151 125 126 127 247
201 199 188 177 169 175 193 205 203 191 200 189 193 201 198 213 191 176 165 163 174 202 214 210 196 195 190 170 166 167 189 231 193 143 125 93 120 149 161 161 167 162 175
201 188 182 182 183 183 185 193 184 184 181 182 210 233 221 220 209 190 178 180 189 197 209 221 223 209 203 191 180 188 206 194 169 163 147 107 90 110 158 179 177 176 181
179 181 191 194 195 183 176 186 173 162 172 202 214 251 256 238 214 207 198 196 186 190 211 215 216 208 205 200 195 201 195 169 146 147 155 184 204 217 221 204 199 206 212
178 190 198 197 196 183 180 182 178 173 183 209 210 231 255 254 234 213 206 203 195 196 210 202 197 197 192 197 201 192 165 156 160 176 204 221 221 217 174 135 109 146 276
186 195 193 189 195 192 189 185 184 190 194 209 219 229 242 246 243 227 214 207 198 197 194 183 173 165 160 177 179 183 177 182 184 199 209 210 176 163 178 169 175 175 174
193 197 197 194 192 198 201 206 208 215 205 203 214 212 212 232 235 214 194 197 194 188 152 123 119 139 159 177 193 192 188 184 197 192 183 184 192 192 204 184 172 161 190
194 201 201 200 200 202 206 238 238 234 236 224 217 211 221 227 225 211 207 203 189 165 145 164 188 195 201 200 201 211 208 209 206 194 189 192 199 205 212 198 188 194 219
198 204 200 202 204 206 205 209 237 269 246 233 226 223 221 218 211 207 203 190 176 159 159 191 202 207 210 208 204 203 213 218 205 196 200 203 205 208 207 209 209 220 234
200 205 202 203 205 206 209 211 212 219 238 255 235 227 225 218 208 199 174 139 153 168 190 204 217 218 214 212 211 211 214 209 204 207 209 209 206 205 209 215 216 223 236
199 203 203 202 202 205 207 207 211 215 222 231 236 238 220 207 193 173 153 159 182 201 211 216 219 219 220 219 217 212 209 213 211 207 212 214 210 205 215 220 221 228 232
202 204 199 195 194 196 198 199 206 213 215 215 220 221 184 139 153 177 182 191 200 213 213 215 218 217 216 217 214 210 213 217 215 216 216 214 211 210 219 221 220 223 230
198 198 195 192 195 198 200 204 206 208 213 218 226 218 186 188 197 199 203 207 212 217 216 211 210 211 213 210 211 212 215 224 223 217 215 215 213 217 224 227 229 231 237
188 189 192 195 197 198 202 204 201 206 213 218 232 218 197 195 201 206 211 219 220 221 214 203 207 210 208 204 206 209 213 221 224 219 221 221 215 218 219 223 231 237 242
184 182 184 192 193 195 197 197 199 205 211 214 213 206 200 205 208 208 212 215 213 213 217 210 214 222 225 218 211 208 215 225 225 217 217 222 222 222 221 226 231 238 243
181 181 184 188 187 190 194 198 202 205 209 211 210 207 206 207 209 212 214 213 209 217 222 221 227 228 229 227 225 226 231 237 231 223 217 218 224 229 231 235 236 238 241
182 185 188 191 193 196 197 202 209 209 208 209 212 215 213 210 213 217 215 210 211 216 225 230 234 235 235 235 235 237 237 238 237 230 223 218 218 222 229 238 240 245 245
186 186 189 192 194 195 195 202 210 211 210 212 214 215 214 215 218 220 218 213 216 221 228 236 236 239 244 244 242 242 244 246 244 236 223 216 215 222 226 236 241 243 247
Height
1530 1532 1533 1535 1536 1537 1539 1540 1541 1541 1542 1542 1543 1543 1543 1543 1543 1544 1544 1544 1544 1544 1544 1544 1544 1544 1544 1544 1544 1544 1544 1544 1544 1545 1545 1546 1546 1546 1547 1547 1547 1547 1547
1528 1530 1531 1533 1534 1535 1537 1538 1539 1540 1540 1541 1542 1542 1542 1542 1542 1542 1542 1543 1543 1543 1543 1543 1543 1543 1543 1543 1543 1543 1543 1543 1543 1543 1544 1545 1545 1546 1546 1546 1546 1546 1546
1527 1528 1530 1531 1532 1533 1535 1536 1537 1538 1539 1539 1540 1540 1541 1541 1541 1541 1541 1541 1541 1541 1541 1541 1541 1541 1541 1542 1542 1542 1542 1543 1543 1543 1543 1544 1544 1545 1545 1545 1545 1545 1545
1525 1526 1527 1529 1530 1532 1533 1534 1535 1536 1537 1538 1538 1539 1539 1539 1539 1540 1540 1540 1540 1540 1540 1540 1540 1540 1540 1541 1541 1541 1541 1541 1542 1542 1542 1542 1543 1543 1544 1544 1544 1544 1544
1523 1524 1525 1527 1529 1530 1531 1532 1533 1534 1535 1536 1536 1537 1537 1538 1538 1538 1538 1538 1538 1539 1539 1539 1539 1539 1539 1539 1540 1540 1540 1540 1540 1540 1541 1541 1542 1542 1542 1542 1542 1542 1542
1520 1522 1523 1525 1526 1527 1529 1530 1531 1532 1533 1533 1534 1535 1535 1535 1536 1536 1537 1537 1537 1537 1537 1537 1538 1538 1538 1538 1538 1539 1539 1539 1539 1539 1539 1540 1540 1540 1540 1540 1540 1540 1540
1518 1519 1521 1522 1524 1525 1527 1528 1529 1529 1530 1531 1532 1532 1533 1534 1534 1535 1535 1535 1535 1536 1536 1536 1536 1536 1537 1537 1537 1537 1537 1537 1538 1538 1538 1538 1538 1538 1538 1538 1538 1538 1538
1516 1517 1518 1520 1521 1523 1524 1525 1526 1527 1528 1529 1529 1530 1531 1531 1532 1533 1533 1533 1534 1534 1534 1535 1535 1535 1535 1536 1536 1536 1536 1536 1536 1536 1536 1537 1537 1537 1537 1537 1536 1536 1536
1514 1515 1516 1517 1518 1520 1521 1522 1523 1525 1525 1526 1527 1527 1528 1529 1530 1530 1531 1531 1531 1532 1532 1533 1533 1534 1534 1534 1534 1534 1535 1535 1535 1535 1535 1535 1535 1535 1535 1534 1534 1534 1533
1511 1513 1514 1515 1516 1517 1518 1519 1520 1522 1522 1523 1523 1524 1525 1526 1527 1527 1528 1528 1529 1529 1530 1530 1531 1531 1532 1532 1532 1532 1532 1533 1533 1533 1533 1533 1533 1532 1532 1532 1532 1531 1531
1509 1510 1512 1513 1514 1515 1516 1517 1517 1518 1519 1519 1520 1521 1522 1522 1523 1524 1525 1525 1526 1526 1527 1527 1528 1529 1529 1529 1530 1530 1530 1530 1530 1530 1530 1530 1530 1530 1530 1529 1529 1529 1528
1506 1507 1509 1510 1511 1512 1513 1513 1514 1515 1515 1516 1516 1517 1518 1519 1519 1520 1521 1521 1522 1523 1523 1524 1525 1525 1526 1526 1527 1527 1527 1527 1527 1527 1527 1527 1527 1527 1527 1526 1526 1526 1525
1502 1504 1505 1507 1508 1509 1509 1510 1510 1511 1512 1512 1513 1513 1513 1515 1515 1516 1517 1517 1518 1519 1520 1521 1521 1522 1522 1523 1523 1524 1524 1524 1524 1524 1524 1524 1524 1524 1523 1523 1523 1522 1522
1498 1500 1501 1503 1504 1505 1506 1507 1507 1507 1508 1508 1509 1509 1509 1510 1511 1512 1512 1513 1514 1515 1516 1516 1517 1517 1518 1519 1519 1520 1520 1520 1520 1520 1520 1520 1520 1520 1519 1519 1519 1518 1518
1495 1496 1497 1499 1500 1501 1502 1503 1503 1504 1504 1505 1505 1505 1506 1506 1507 1508 1508 1509 1510 1511 1511 1512 1513 1513 1514 1514 1515 1515 1516 1516 1516 1516 1516 1516 1516 1516 1516 1515 1515 1514 1514
1490 1492 1493 1495 1496 1497 1497 1498 1499 1500 1500 1501 1502 1502 1502 1503 1503 1504 1504 1505 1506 1507 1507 1507 1508 1509 1509 1510 1510 1511 1511 1511 1511 1511 1511 1511 1511 1511 1511 1511 1511 1510 1509
1486 1487 1489 1490 1491 1492 1493 1493 1494 1495 1496 1496 1497 1498 1498 1498 1499 1500 1500 1501 1502 1502 1502 1503 1503 1504 1505 1505 1505 1506 1506 1507 1507 1507 1506 1506 1507 1507 1507 1507 1506 1506 1505
1482 1483 1484 1485 1487 1487 1488 1489 1489 1489 1490 1490 1492 1493 1493 1494 1494 1495 1496 1496 1496 1497 1497 1498 1499 1499 1500 1500 1501 1501 1501 1502 1502 1502 1502 1502 1502 1502 1502 1502 1501 1501 1500
1477 1478 1480 1481 1482 1483 1483 1484 1484 1485 1485 1486 1486 1487 1488 1489 1489 1490 1490 1491 1491 1492 1492 1493 1494 1495 1495 1496 1496 1496 1497 1497 1497 1497 1497 1497 1497 1497 1497 1497 1496 1496 1495
1473 1474 1475 1476 1477 1478 1478 1479 1480 1480 1481 1481 1481 1482 1483 1484 1483 1484 1485 1485 1486 1487 1488 1488 1489 1490 1490 1491 1491 1491 1492 1492 1492 1492 1492 1492 1492 1492 1491 1491 1491 1491 1490
1469 1470 1471 1471 1472 1473 1474 1474 1475 1475 1476 1476 1477 1477 1478 1479 1479 1479 1480 1480 1481 1482 1483 1483 1484 1485 1486 1486 1486 1486 1486 1487 1487 1487 1487 1487 1486 1486 1486 1486 1486 1485 1485
1464 1465 1466 1467 1467 1468 1469 1470 1470 1471 1471 1472 1472 1473 1474 1474 1475 1475 1476 1476 1477 1478 1478 1479 1479 1480 1481 1481 1481 1481 1481 1481 1481 1482 1482 1481 1481 1481 1481 1481 1480 1480 1479
1460 1460 1461 1462 1463 1464 1464 1465 1466 1466 1467 1468 1468 1469 1469 1469 1470 1470 1471 1472 1472 1473 1473 1474 1474 1475 1475 1476 1476 1476 1476 1476 1477 1477 1477 1476 1476 1476 1476 1475 1475 1475 1474
1455 1456 1457 1457 1458 1459 1460 1461 1461 1462 1463 1463 1464 1464 1465 1465 1465 1466 1466 1467 1467 1468 1468 1469 1469 1469 1470 1470 1470 1471 1471 1471 1471 1471 1471 1471 1471 1471 1470 1470 1469 1469 1469
1451 1452 1452 1453 1454 1455 1456 1456 1457 1458 1458 1459 1459 1460 1460 1460 1461 1461 1462 1462 1462 1463 1463 1464 1464 1464 1465 1465 1465 1465 1466 1466 1466 1466 1466 1466 1466 1465 1465 1464 1464 1463 1463
1447 1447 1448 1449 1450 1450 1451 1452 1452 1453 1454 1454 1455 1455 1455 1456 1456 1456 1457 1457 1457 1458 1458 1459 1459 1460 1460 1459 1460 1460 1461 1461 1461 1461 1461 1461 1460 1460 1459 1459 1458 1458 1457